sat.trackr.live / text

‹ back to catalog

STARLINK-33963

NORAD 63968 · 2025-099S

PAYLOAD ACTIVE UNKNOWN

§ Identity

Operator
Country
US
Launch date
2025-05-13
Launch site
AFETR
Launch vehicle
Mass (kg)
RCS (m²)

Purposes: comms

External: N2YO · Heavens-Above · Gunter

§ Orbital elements

Epoch: 2026-05-25T03:41:31.090848Z

Period
94.27 min
Inclination
43.0004°
Eccentricity
0.0001068
Mean motion
15.27594222 rev/d
Perigee alt
482.3 km
Apogee alt
483.7 km
Semi-major
6,861.1 km
B*
5.2616e-4
RAAN
104.1125°
Arg perigee
252.5495°
Mean anomaly
107.5240°
Rev number
5,903

§ Raw data

STARLINK-339631 63968U 25099S   26145.15383207  .00014251  00000+0  52616-3 0  99992 63968  43.0004 104.1125 0001068 252.5495 107.5240 15.27594222 59031

JSON: /api/v1/satellites/63968 · /tle

For live sub-satellite position, see the globe view (requires WebGL).

§ Visibility from observer

Set your observer location to see the next 7 days of passes ≥ 10°. The values pass through the URL so the page stays shareable.

No JS? Fill the form by hand. The geolocation button needs JavaScript.